Regional Weather Roundup
Issued by NWS Sioux Falls, SD

Home | Current Version | Previous Version | Text Only | Print | Product List | Glossary On
Versions: 1 2 3 4 5 6 7 8 9 10 11 12 13 14 15 16 17 18 19 20 21 22 23 24 25 26 27 28 29 30 31 32 33 34 35 36 37 38 39 40 41 42 43 44 45 46 47 48 49 50
000
ASUS43 KFSD 271010
RWRFSD

WEATHER ROUNDUP FOR SE SOUTH DAKOTA/SW MINNESOTA/NW IOWA
NATIONAL WEATHER SERVICE SIOUX FALLS SD
500 AM CDT WED JUL 27 2016

NOTE: "FAIR" INDICATES FEW OR NO CLOUDS BELOW 12,000 FEET WITH NO
SIGNIFICANT WEATHER AND OR OBSTRUCTIONS TO VISIBILITY.


SDZ038>040-050-052>070-271100-
SOUTHEAST SOUTH DAKOTA

CITY           SKY/WX    TMP DP  RH WIND       PRES   REMARKS
CHAMBERLAIN    CLOUDY    66  62  86 NW7       29.98F
HURON          CLOUDY    68  66  93 W10       29.96R
MADISON        FAIR      70  68  94 W12       29.97R
MITCHELL       CLOUDY    69  62  78 NW9       29.97S
SIOUX FALLS    CLOUDY    73  59  61 SW5       29.94S
WINNER         FAIR      64  58  80 W3        30.01S
YANKTON        MOCLDY    70  61  73 NE12      29.91R
$$

MNZ071-072-080-081-089-090-097-098-271100-
SOUTHWEST MINNESOTA

CITY           SKY/WX    TMP DP  RH WIND       PRES   REMARKS
FAIRMONT       CLOUDY    68  63  83 S5        29.97F
JACKSON        CLOUDY    70  63  78 S5        29.98F
LUVERNE        PTCLDY    68  64  88 S7        29.95F
MARSHALL       CLOUDY    71  67  87 SE8       29.93F
MONTEVIDEO     CLOUDY    70  70 100 SW3       29.96R
PIPESTONE      CLOUDY    70  64  83 S6        29.95S
REDWOOD FALLS  CLOUDY    71  67  87 SE7       29.94F
TRACY          PTCLDY    71  68  88 S7        29.94F
WINDOM         MOCLDY    72  64  78 S6        29.97F
WORTHINGTON    CLOUDY    70  66  87 S8        29.98F
$$

IAZ001>003-012>014-020>022-031-032-NEZ013-014-SDZ071-271100-
NORTHWEST IOWA

CITY           SKY/WX    TMP DP  RH WIND       PRES   REMARKS
CHEROKEE       CLOUDY    67  66  96 S3        29.96F
DENISON          N/A     68  64  88 CALM      29.97F
ESTHERVILLE    CLOUDY    65  64  97 S7        29.97F
LE MARS        MOCLDY    70  66  88 S6        29.95F
SHELDON        CLOUDY    68  66  94 CALM      29.96S
SIOUX CITY     MOCLDY    71  66  84 SE8       29.93F
SPENCER        CLOUDY    66  63  90 S5        29.98F
STORM LAKE     CLOUDY    66  64  94 S8        29.99F
$$

ABBREVIATIONS USED IN REMARKS
   TC - TEMPERATURE IN CELSIUS
  WCI - WIND CHILL INDEX
   HX - HEAT INDEX
  VSB - VISIBILITY




USA.gov is the U.S. government's official web portal to all federal, state and local government web resources and services.